Time,TemperatureF,DewpointF,PressureIn,WindDirection,WindDirectionDegrees,WindSpeedMPH,WindSpeedGustMPH,Humidity,HourlyPrecipIn,Conditions,Clouds,dailyrainin,SoftwareType,DateUTC
2013-06-04 00:01:00,57.6,-40.0,29.56,ENE,67,1.0,2.0,0,0.00,,,0.00,Rainwise IP-100,2013-06-04 04:01:00,
2013-06-04 00:06:00,57.7,-40.0,29.56,ENE,67,0.0,2.0,0,0.00,,,0.00,Rainwise IP-100,2013-06-04 04:06:00,
2013-06-04 00:11:00,57.7,-40.0,29.56,ENE,67,0.0,2.0,0,0.00,,,0.00,Rainwise IP-100,2013-06-04 04:11:00,
2013-06-04 00:16:00,57.8,-40.0,29.56,ENE,67,0.0,2.0,0,0.00,,,0.00,Rainwise IP-100,2013-06-04 04:16:00,
2013-06-04 00:21:00,57.9,-40.0,29.56,ENE,67,1.0,1.0,0,0.00,,,0.00,Rainwise IP-100,2013-06-04 04:21:00,
2013-06-04 00:26:00,58.1,-40.0,29.56,ENE,67,1.0,2.0,0,0.00,,,0.00,Rainwise IP-100,2013-06-04 04:26:00,
2013-06-04 00:31:00,58.2,-40.0,29.56,ENE,67,0.0,2.0,0,0.00,,,0.00,Rainwise IP-100,2013-06-04 04:31:00,
2013-06-04 00:36:00,58.1,-40.0,29.56,ENE,67,2.0,2.0,0,0.00,,,0.00,Rainwise IP-100,2013-06-04 04:36:00,
2013-06-04 00:41:00,57.9,-40.0,29.56,ENE,67,0.0,2.0,0,0.00,,,0.00,Rainwise IP-100,2013-06-04 04:41:00,
2013-06-04 00:46:00,57.9,-40.0,29.56,ENE,67,0.0,0.0,0,0.00,,,0.00,Rainwise IP-100,2013-06-04 04:46:00,
2013-06-04 00:51:00,57.8,-40.0,29.56,ENE,67,0.0,2.0,0,0.00,,,0.00,Rainwise IP-100,2013-06-04 04:51:00,
2013-06-04 00:56:00,56.9,-40.0,29.57,ENE,67,2.0,2.0,0,0.00,,,0.00,Rainwise IP-100,2013-06-04 04:56:00,
2013-06-04 01:01:00,56.7,-40.0,29.57,ENE,67,0.0,2.0,0,0.00,,,0.00,Rainwise IP-100,2013-06-04 05:01:00,
2013-06-04 01:06:00,56.7,-40.0,29.57,ENE,67,0.0,0.0,0,0.00,,,0.00,Rainwise IP-100,2013-06-04 05:06:00,
2013-06-04 01:11:00,56.7,-40.0,29.57,ENE,67,0.0,0.0,0,0.00,,,0.00,Rainwise IP-100,2013-06-04 05:11:00,
2013-06-04 01:16:00,56.7,-40.0,29.57,ENE,67,0.0,0.0,0,0.00,,,0.00,Rainwise IP-100,2013-06-04 05:16:00,
2013-06-04 01:21:00,56.6,-40.0,29.56,ENE,67,0.0,0.0,0,0.00,,,0.00,Rainwise IP-100,2013-06-04 05:21:00,
2013-06-04 01:26:00,56.4,-40.0,29.56,ENE,67,0.0,1.0,0,0.00,,,0.00,Rainwise IP-100,2013-06-04 05:26:00,
2013-06-04 01:31:00,56.4,-40.0,29.57,NNE,22,0.0,2.0,0,0.00,,,0.00,Rainwise IP-100,2013-06-04 05:31:00,
2013-06-04 01:36:00,56.4,-40.0,29.57,NNE,22,0.0,0.0,0,0.00,,,0.00,Rainwise IP-100,2013-06-04 05:36:00,
2013-06-04 01:41:00,56.6,-40.0,29.57,ENE,67,0.0,2.0,0,0.00,,,0.00,Rainwise IP-100,2013-06-04 05:41:00,
2013-06-04 01:46:00,56.6,-40.0,29.57,ENE,67,0.0,2.0,0,0.00,,,0.00,Rainwise IP-100,2013-06-04 05:46:00,
2013-06-04 01:51:00,56.6,-40.0,29.57,NNE,22,0.0,2.0,0,0.00,,,0.00,Rainwise IP-100,2013-06-04 05:51:00,
2013-06-04 01:56:00,56.6,-40.0,29.57,ENE,67,0.0,2.0,0,0.00,,,0.00,Rainwise IP-100,2013-06-04 05:56:00,
2013-06-04 02:01:00,56.5,-40.0,29.57,NNE,22,2.0,2.0,0,0.00,,,0.00,Rainwise IP-100,2013-06-04 06:01:00,
2013-06-04 02:06:00,56.5,-40.0,29.57,NNE,22,1.0,2.0,0,0.00,,,0.00,Rainwise IP-100,2013-06-04 06:06:00,
2013-06-04 02:11:00,56.5,-40.0,29.57,ENE,67,0.0,2.0,0,0.00,,,0.00,Rainwise IP-100,2013-06-04 06:11:00,
2013-06-04 02:16:00,56.3,-40.0,29.57,ENE,67,1.0,2.0,0,0.00,,,0.00,Rainwise IP-100,2013-06-04 06:16:00,
2013-06-04 02:21:00,56.1,-40.0,29.57,NNE,22,1.0,2.0,0,0.00,,,0.00,Rainwise IP-100,2013-06-04 06:21:00,
2013-06-04 02:26:00,55.7,-40.0,29.57,NNE,22,0.0,4.0,0,0.00,,,0.00,Rainwise IP-100,2013-06-04 06:26:00,
2013-06-04 02:31:00,55.5,-40.0,29.58,NNE,22,0.0,0.0,0,0.00,,,0.00,Rainwise IP-100,2013-06-04 06:31:00,
2013-06-04 02:36:00,55.2,-40.0,29.58,ENE,67,1.0,2.0,0,0.00,,,0.00,Rainwise IP-100,2013-06-04 06:36:00,
2013-06-04 02:41:00,54.9,-40.0,29.57,ENE,67,0.0,2.0,0,0.00,,,0.00,Rainwise IP-100,2013-06-04 06:41:00,
2013-06-04 02:46:00,54.7,-40.0,29.57,ENE,67,2.0,2.0,0,0.00,,,0.00,Rainwise IP-100,2013-06-04 06:46:00,
2013-06-04 02:51:00,54.5,-40.0,29.57,NNE,22,2.0,2.0,0,0.00,,,0.00,Rainwise IP-100,2013-06-04 06:51:00,
2013-06-04 02:56:00,54.3,-40.0,29.57,ENE,67,2.0,2.0,0,0.00,,,0.00,Rainwise IP-100,2013-06-04 06:56:00,
2013-06-04 03:01:00,54.0,-40.0,29.57,ENE,67,1.0,2.0,0,0.00,,,0.00,Rainwise IP-100,2013-06-04 07:01:00,
2013-06-04 03:06:00,53.9,-40.0,29.57,ENE,67,1.0,2.0,0,0.00,,,0.00,Rainwise IP-100,2013-06-04 07:06:00,
2013-06-04 03:11:00,53.7,-40.0,29.57,ENE,67,1.0,2.0,0,0.00,,,0.00,Rainwise IP-100,2013-06-04 07:11:00,
2013-06-04 03:16:00,53.6,-40.0,29.56,ENE,67,2.0,2.0,0,0.00,,,0.00,Rainwise IP-100,2013-06-04 07:16:00,
2013-06-04 03:21:00,53.4,-40.0,29.56,ENE,67,2.0,2.0,0,0.00,,,0.00,Rainwise IP-100,2013-06-04 07:21:00,
2013-06-04 03:26:00,53.1,-40.0,29.56,ENE,67,2.0,2.0,0,0.00,,,0.00,Rainwise IP-100,2013-06-04 07:26:00,
2013-06-04 03:31:00,53.0,-40.0,29.56,ENE,67,2.0,2.0,0,0.00,,,0.00,Rainwise IP-100,2013-06-04 07:31:00,
2013-06-04 03:36:00,52.9,-40.0,29.56,ENE,67,1.0,2.0,0,0.00,,,0.00,Rainwise IP-100,2013-06-04 07:36:00,
2013-06-04 03:41:00,52.8,-40.0,29.55,ENE,67,1.0,2.0,0,0.00,,,0.00,Rainwise IP-100,2013-06-04 07:41:00,
2013-06-04 03:46:00,52.5,-40.0,29.55,ENE,67,1.0,2.0,0,0.00,,,0.00,Rainwise IP-100,2013-06-04 07:46:00,
2013-06-04 03:51:00,52.3,-40.0,29.55,ENE,67,2.0,2.0,0,0.00,,,0.00,Rainwise IP-100,2013-06-04 07:51:00,
2013-06-04 03:56:00,52.3,-40.0,29.54,ENE,67,2.0,2.0,0,0.00,,,0.00,Rainwise IP-100,2013-06-04 07:56:00,
2013-06-04 04:01:00,52.3,-40.0,29.54,ENE,67,2.0,2.0,0,0.00,,,0.00,Rainwise IP-100,2013-06-04 08:01:00,
2013-06-04 04:06:00,52.3,-40.0,29.55,ENE,67,2.0,2.0,0,0.00,,,0.00,Rainwise IP-100,2013-06-04 08:06:00,
2013-06-04 04:11:00,52.2,-40.0,29.54,ENE,67,1.0,2.0,0,0.00,,,0.00,Rainwise IP-100,2013-06-04 08:11:00,
2013-06-04 04:16:00,51.8,-40.0,29.54,ENE,67,1.0,2.0,0,0.00,,,0.00,Rainwise IP-100,2013-06-04 08:16:00,
2013-06-04 04:21:00,51.6,-40.0,29.55,ENE,67,1.0,2.0,0,0.00,,,0.00,Rainwise IP-100,2013-06-04 08:21:00,
2013-06-04 04:26:00,51.5,-40.0,29.54,ENE,67,2.0,2.0,0,0.00,,,0.00,Rainwise IP-100,2013-06-04 08:26:00,
2013-06-04 04:31:00,51.6,-40.0,29.54,ENE,67,2.0,2.0,0,0.00,,,0.00,Rainwise IP-100,2013-06-04 08:31:00,
2013-06-04 04:36:00,51.4,-40.0,29.54,ENE,67,0.0,2.0,0,0.00,,,0.00,Rainwise IP-100,2013-06-04 08:36:00,
2013-06-04 04:41:00,51.5,-40.0,29.54,ENE,67,0.0,0.0,0,0.00,,,0.00,Rainwise IP-100,2013-06-04 08:41:00,
2013-06-04 04:46:00,51.3,-40.0,29.54,ENE,67,0.0,0.0,0,0.00,,,0.00,Rainwise IP-100,2013-06-04 08:46:00,
2013-06-04 04:51:00,51.2,-40.0,29.54,ENE,67,0.0,0.0,0,0.00,,,0.00,Rainwise IP-100,2013-06-04 08:51:00,
2013-06-04 04:56:00,51.2,-40.0,29.55,ENE,67,2.0,2.0,0,0.00,,,0.00,Rainwise IP-100,2013-06-04 08:56:00,
2013-06-04 05:01:00,51.3,-40.0,29.54,ENE,67,1.0,2.0,0,0.00,,,0.00,Rainwise IP-100,2013-06-04 09:01:00,
2013-06-04 05:06:00,51.2,-40.0,29.54,ENE,67,2.0,2.0,0,0.00,,,0.00,Rainwise IP-100,2013-06-04 09:06:00,
2013-06-04 05:11:00,51.2,-40.0,29.54,ENE,67,1.0,2.0,0,0.00,,,0.00,Rainwise IP-100,2013-06-04 09:11:00,
2013-06-04 05:16:00,51.0,-40.0,29.55,ENE,67,2.0,2.0,0,0.00,,,0.00,Rainwise IP-100,2013-06-04 09:16:00,
2013-06-04 05:21:00,51.1,-40.0,29.55,ENE,67,2.0,2.0,0,0.00,,,0.00,Rainwise IP-100,2013-06-04 09:21:00,
2013-06-04 05:26:00,51.3,-40.0,29.55,ENE,67,1.0,2.0,0,0.00,,,0.00,Rainwise IP-100,2013-06-04 09:26:00,
2013-06-04 05:31:00,51.3,-40.0,29.55,ENE,67,2.0,2.0,0,0.00,,,0.00,Rainwise IP-100,2013-06-04 09:31:00,
2013-06-04 05:36:00,51.3,-40.0,29.55,ENE,67,1.0,2.0,0,0.00,,,0.00,Rainwise IP-100,2013-06-04 09:36:00,
2013-06-04 05:41:00,51.2,-40.0,29.55,ENE,67,2.0,2.0,0,0.00,,,0.00,Rainwise IP-100,2013-06-04 09:41:00,
2013-06-04 05:46:00,51.3,-40.0,29.55,ENE,67,2.0,2.0,0,0.00,,,0.00,Rainwise IP-100,2013-06-04 09:46:00,
2013-06-04 05:51:00,51.3,-40.0,29.55,ENE,67,2.0,2.0,0,0.00,,,0.00,Rainwise IP-100,2013-06-04 09:51:00,
2013-06-04 05:56:00,51.2,-40.0,29.56,ENE,67,2.0,2.0,0,0.00,,,0.00,Rainwise IP-100,2013-06-04 09:56:00,
2013-06-04 06:01:00,51.5,-40.0,29.56,ENE,67,2.0,2.0,0,0.00,,,0.00,Rainwise IP-100,2013-06-04 10:01:00,
2013-06-04 06:06:00,51.5,-40.0,29.56,NNE,22,1.0,2.0,0,0.00,,,0.00,Rainwise IP-100,2013-06-04 10:06:00,
2013-06-04 06:11:00,51.8,-40.0,29.56,NE,45,1.0,2.0,0,0.00,,,0.00,Rainwise IP-100,2013-06-04 10:11:00,
2013-06-04 06:16:00,52.1,-40.0,29.56,ENE,67,0.0,1.0,0,0.00,,,0.00,Rainwise IP-100,2013-06-04 10:16:00,
2013-06-04 06:21:00,52.1,-40.0,29.56,NNE,22,1.0,2.0,0,0.00,,,0.00,Rainwise IP-100,2013-06-04 10:21:00,
2013-06-04 06:26:00,52.1,-40.0,29.57,NNE,22,0.0,1.0,0,0.00,,,0.00,Rainwise IP-100,2013-06-04 10:26:00,
2013-06-04 06:31:00,52.1,-40.0,29.57,NNE,22,0.0,2.0,0,0.00,,,0.00,Rainwise IP-100,2013-06-04 10:31:00,
2013-06-04 06:36:00,52.3,-40.0,29.57,NNE,22,0.0,1.0,0,0.00,,,0.00,Rainwise IP-100,2013-06-04 10:36:00,
2013-06-04 06:41:00,52.6,-40.0,29.57,NNE,22,0.0,0.0,0,0.00,,,0.00,Rainwise IP-100,2013-06-04 10:41:00,
2013-06-04 06:46:00,52.9,-40.0,29.57,ENE,67,1.0,2.0,0,0.00,,,0.00,Rainwise IP-100,2013-06-04 10:46:00,
2013-06-04 06:51:00,53.3,-40.0,29.58,NNE,22,1.0,2.0,0,0.00,,,0.00,Rainwise IP-100,2013-06-04 10:51:00,
2013-06-04 06:56:00,53.4,-40.0,29.58,NNE,22,1.0,1.0,0,0.00,,,0.00,Rainwise IP-100,2013-06-04 10:56:00,
2013-06-04 07:01:00,53.4,-40.0,29.58,NNE,22,1.0,2.0,0,0.00,,,0.00,Rainwise IP-100,2013-06-04 11:01:00,
2013-06-04 07:06:00,53.5,-40.0,29.58,NNE,22,0.0,2.0,0,0.00,,,0.00,Rainwise IP-100,2013-06-04 11:06:00,
2013-06-04 07:11:00,53.7,-40.0,29.58,NNE,22,1.0,2.0,0,0.00,,,0.00,Rainwise IP-100,2013-06-04 11:11:00,
2013-06-04 07:16:00,53.9,-23.0,29.58,NNE,22,3.0,3.0,3,0.00,,,0.00,Rainwise IP-100,2013-06-04 11:16:00,
2013-06-04 07:21:00,54.8,38.0,29.58,NNE,22,1.0,3.0,52,0.00,,,0.00,Rainwise IP-100,2013-06-04 11:21:00,
2013-06-04 07:26:00,55.5,45.0,29.59,NNE,22,1.0,4.0,67,0.00,,,0.00,Rainwise IP-100,2013-06-04 11:26:00,
2013-06-04 07:31:00,55.9,46.0,29.59,NNE,22,1.0,4.0,68,0.00,,,0.00,Rainwise IP-100,2013-06-04 11:31:00,
2013-06-04 07:36:00,56.7,46.0,29.59,NNE,22,2.0,4.0,68,0.00,,,0.00,Rainwise IP-100,2013-06-04 11:36:00,
2013-06-04 07:41:00,57.2,50.0,29.59,NNE,22,3.0,4.0,76,0.00,,,0.00,Rainwise IP-100,2013-06-04 11:41:00,
2013-06-04 07:46:00,57.7,50.5,29.60,NNE,22,2.0,6.0,78,0.00,,,0.00,Rainwise IP-100,2013-06-04 11:46:00,
2013-06-04 07:51:00,58.2,53.0,29.60,NNE,22,2.0,7.0,81,0.00,,,0.00,Rainwise IP-100,2013-06-04 11:51:00,
2013-06-04 07:56:00,58.6,54.0,29.60,NNE,22,2.0,4.0,83,0.00,,,0.00,Rainwise IP-100,2013-06-04 11:56:00,
2013-06-04 08:01:00,58.9,54.0,29.61,NNE,22,2.0,5.0,84,0.00,,,0.00,Rainwise IP-100,2013-06-04 12:01:00,
2013-06-04 08:06:00,59.1,54.5,29.61,NNE,22,4.0,6.0,85,0.00,,,0.00,Rainwise IP-100,2013-06-04 12:06:00,
2013-06-04 08:11:00,59.1,54.5,29.62,NNE,22,2.0,7.0,86,0.00,,,0.00,Rainwise IP-100,2013-06-04 12:11:00,
2013-06-04 08:16:00,59.4,55.0,29.62,ENE,67,1.0,6.0,86,0.00,,,0.00,Rainwise IP-100,2013-06-04 12:16:00,
2013-06-04 08:21:00,59.7,55.0,29.62,ENE,67,2.0,4.0,86,0.00,,,0.00,Rainwise IP-100,2013-06-04 12:21:00,
2013-06-04 08:26:00,59.8,55.0,29.62,ENE,67,4.0,5.0,84,0.00,,,0.00,Rainwise IP-100,2013-06-04 12:26:00,
2013-06-04 08:31:00,59.9,55.0,29.62,ENE,67,3.0,4.0,85,0.00,,,0.00,Rainwise IP-100,2013-06-04 12:31:00,
2013-06-04 08:36:00,60.1,55.0,29.63,NE,45,2.0,6.0,85,0.00,,,0.00,Rainwise IP-100,2013-06-04 12:36:00,
2013-06-04 08:41:00,60.4,56.0,29.63,NE,45,3.0,6.0,85,0.00,,,0.00,Rainwise IP-100,2013-06-04 12:41:00,
2013-06-04 08:46:00,60.5,56.0,29.63,NE,45,2.0,6.0,85,0.00,,,0.00,Rainwise IP-100,2013-06-04 12:46:00,
2013-06-04 08:51:00,60.6,56.0,29.63,NE,45,2.0,6.0,85,0.00,,,0.00,Rainwise IP-100,2013-06-04 12:51:00,
2013-06-04 08:56:00,60.8,56.0,29.63,NE,45,3.0,5.0,84,0.00,,,0.00,Rainwise IP-100,2013-06-04 12:56:00,
2013-06-04 09:01:00,60.9,56.0,29.63,NE,45,5.0,6.0,84,0.00,,,0.00,Rainwise IP-100,2013-06-04 13:01:00,
2013-06-04 09:06:00,60.9,55.0,29.63,NE,45,4.0,6.0,81,0.00,,,0.00,Rainwise IP-100,2013-06-04 13:06:00,
2013-06-04 09:11:00,61.4,56.0,29.64,NE,45,2.0,4.0,81,0.00,,,0.00,Rainwise IP-100,2013-06-04 13:11:00,
2013-06-04 09:16:00,61.4,56.0,29.64,NE,45,4.0,6.0,81,0.00,,,0.00,Rainwise IP-100,2013-06-04 13:16:00,
2013-06-04 09:21:00,61.3,55.0,29.64,NE,45,3.0,7.0,80,0.00,,,0.00,Rainwise IP-100,2013-06-04 13:21:00,
2013-06-04 09:26:00,61.8,55.0,29.64,NE,45,4.0,7.0,78,0.00,,,0.00,Rainwise IP-100,2013-06-04 13:26:00,
2013-06-04 09:31:00,62.2,54.0,29.63,NE,45,5.0,7.0,75,0.00,,,0.00,Rainwise IP-100,2013-06-04 13:31:00,
2013-06-04 09:36:00,62.3,54.5,29.64,NE,45,2.0,7.0,75,0.00,,,0.00,Rainwise IP-100,2013-06-04 13:36:00,
2013-06-04 09:41:00,62.1,54.0,29.64,NE,45,7.0,7.0,75,0.00,,,0.00,Rainwise IP-100,2013-06-04 13:41:00,
2013-06-04 09:46:00,62.5,53.0,29.64,NNE,22,4.0,7.0,71,0.00,,,0.00,Rainwise IP-100,2013-06-04 13:46:00,
2013-06-04 09:51:00,62.5,54.0,29.64,NNE,22,2.0,7.0,73,0.00,,,0.00,Rainwise IP-100,2013-06-04 13:51:00,
2013-06-04 09:56:00,62.4,54.5,29.64,NNE,22,4.0,7.0,75,0.00,,,0.00,Rainwise IP-100,2013-06-04 13:56:00,
2013-06-04 10:01:00,63.0,53.5,29.64,NNE,22,1.0,8.0,71,0.00,,,0.00,Rainwise IP-100,2013-06-04 14:01:00,
2013-06-04 10:06:00,62.6,54.5,29.64,NNE,22,2.0,8.0,75,0.00,,,0.00,Rainwise IP-100,2013-06-04 14:06:00,
2013-06-04 10:11:00,62.6,54.0,29.64,NNE,22,5.0,7.0,73,0.00,,,0.00,Rainwise IP-100,2013-06-04 14:11:00,
2013-06-04 10:16:00,62.6,53.0,29.64,NNE,22,4.0,12.0,70,0.00,,,0.00,Rainwise IP-100,2013-06-04 14:16:00,
2013-06-04 10:21:00,62.4,54.5,29.64,ENE,67,4.0,7.0,76,0.00,,,0.00,Rainwise IP-100,2013-06-04 14:21:00,
2013-06-04 10:26:00,62.1,54.0,29.64,ENE,67,4.0,6.0,75,0.00,,,0.00,Rainwise IP-100,2013-06-04 14:26:00,
2013-06-04 10:31:00,62.0,53.0,29.64,ENE,67,4.0,9.0,72,0.00,,,0.00,Rainwise IP-100,2013-06-04 14:31:00,
2013-06-04 10:36:00,61.9,53.5,29.64,ENE,67,4.0,7.0,74,0.00,,,0.00,Rainwise IP-100,2013-06-04 14:36:00,
2013-06-04 10:41:00,61.8,54.0,29.64,ENE,67,3.0,7.0,75,0.00,,,0.00,Rainwise IP-100,2013-06-04 14:41:00,
2013-06-04 10:46:00,62.3,51.0,29.64,NNE,22,4.0,9.0,66,0.00,,,0.00,Rainwise IP-100,2013-06-04 14:46:00,
2013-06-04 10:51:00,61.9,52.0,29.64,NNE,22,5.0,7.0,69,0.00,,,0.00,Rainwise IP-100,2013-06-04 14:51:00,
2013-06-04 10:56:00,61.9,52.0,29.64,NNE,22,4.0,7.0,70,0.00,,,0.00,Rainwise IP-100,2013-06-04 14:56:00,
2013-06-04 11:01:00,61.9,53.0,29.64,NNE,22,4.0,7.0,71,0.00,,,0.00,Rainwise IP-100,2013-06-04 15:01:00,
2013-06-04 11:06:00,63.1,52.0,29.63,NNE,22,6.0,7.0,68,0.00,,,0.00,Rainwise IP-100,2013-06-04 15:06:00,
2013-06-04 11:11:00,62.6,53.0,29.64,NNE,22,2.0,8.0,71,0.00,,,0.00,Rainwise IP-100,2013-06-04 15:11:00,
2013-06-04 11:16:00,62.0,53.5,29.64,NNE,22,5.0,7.0,73,0.00,,,0.00,Rainwise IP-100,2013-06-04 15:16:00,
2013-06-04 11:21:00,62.6,53.0,29.64,NNE,22,6.0,7.0,71,0.00,,,0.00,Rainwise IP-100,2013-06-04 15:21:00,
2013-06-04 11:26:00,62.9,52.0,29.64,NNE,22,7.0,9.0,68,0.00,,,0.00,Rainwise IP-100,2013-06-04 15:26:00,
2013-06-04 11:31:00,63.0,52.0,29.63,NNE,22,7.0,7.0,68,0.00,,,0.00,Rainwise IP-100,2013-06-04 15:31:00,
2013-06-04 11:36:00,63.6,53.5,29.64,NNE,22,5.0,9.0,69,0.00,,,0.00,Rainwise IP-100,2013-06-04 15:36:00,
2013-06-04 11:41:00,63.2,52.0,29.64,NNE,22,4.0,10.0,67,0.00,,,0.00,Rainwise IP-100,2013-06-04 15:41:00,
2013-06-04 11:46:00,62.4,52.0,29.64,ENE,67,8.0,8.0,69,0.00,,,0.00,Rainwise IP-100,2013-06-04 15:46:00,
2013-06-04 11:51:00,62.9,54.0,29.64,NNE,22,4.0,11.0,73,0.00,,,0.00,Rainwise IP-100,2013-06-04 15:51:00,
2013-06-04 11:56:00,63.3,51.0,29.64,NNE,22,4.0,10.0,65,0.00,,,0.00,Rainwise IP-100,2013-06-04 15:56:00,
2013-06-04 12:01:00,63.2,50.0,29.64,NNE,22,5.0,9.0,62,0.00,,,0.00,Rainwise IP-100,2013-06-04 16:01:00,
2013-06-04 12:06:00,62.4,51.0,29.64,NNE,22,4.0,10.0,67,0.00,,,0.00,Rainwise IP-100,2013-06-04 16:06:00,
2013-06-04 12:11:00,63.5,48.0,29.64,NNE,22,4.0,11.0,57,0.00,,,0.00,Rainwise IP-100,2013-06-04 16:11:00,
2013-06-04 12:16:00,63.3,49.0,29.64,NNE,22,9.0,13.0,59,0.00,,,0.00,Rainwise IP-100,2013-06-04 16:16:00,
2013-06-04 12:21:00,62.6,50.0,29.64,ENE,67,1.0,11.0,63,0.00,,,0.00,Rainwise IP-100,2013-06-04 16:21:00,
2013-06-04 12:26:00,62.5,50.0,29.64,NE,45,2.0,10.0,64,0.00,,,0.00,Rainwise IP-100,2013-06-04 16:26:00,
2013-06-04 12:31:00,63.1,50.0,29.64,NE,45,6.0,8.0,62,0.00,,,0.00,Rainwise IP-100,2013-06-04 16:31:00,
2013-06-04 12:36:00,62.3,50.0,29.64,NNE,22,7.0,12.0,63,0.00,,,0.00,Rainwise IP-100,2013-06-04 16:36:00,
2013-06-04 12:41:00,61.4,50.5,29.64,NNE,22,4.0,12.0,67,0.00,,,0.00,Rainwise IP-100,2013-06-04 16:41:00,
2013-06-04 12:46:00,61.1,50.0,29.64,ENE,67,2.0,12.0,66,0.00,,,0.00,Rainwise IP-100,2013-06-04 16:46:00,
2013-06-04 12:51:00,61.2,49.0,29.65,ENE,67,5.0,10.0,64,0.00,,,0.00,Rainwise IP-100,2013-06-04 16:51:00,
2013-06-04 12:56:00,61.5,50.0,29.65,NE,45,6.0,10.0,66,0.00,,,0.00,Rainwise IP-100,2013-06-04 16:56:00,
2013-06-04 13:01:00,62.8,50.5,29.64,NNE,22,9.0,9.0,63,0.00,,,0.00,Rainwise IP-100,2013-06-04 17:01:00,
2013-06-04 13:06:00,62.2,50.5,29.65,NNE,22,7.0,12.0,66,0.00,,,0.00,Rainwise IP-100,2013-06-04 17:06:00,
2013-06-04 13:11:00,62.3,49.0,29.65,NNE,22,9.0,12.0,62,0.00,,,0.00,Rainwise IP-100,2013-06-04 17:11:00,
2013-06-04 13:16:00,61.3,50.0,29.65,NNE,22,7.0,14.0,66,0.00,,,0.00,Rainwise IP-100,2013-06-04 17:16:00,
2013-06-04 13:21:00,61.3,50.5,29.65,NNE,22,5.0,11.0,67,0.00,,,0.00,Rainwise IP-100,2013-06-04 17:21:00,
2013-06-04 13:26:00,60.9,50.5,29.66,NNE,22,7.0,11.0,69,0.00,,,0.00,Rainwise IP-100,2013-06-04 17:26:00,
2013-06-04 13:31:00,60.7,50.5,29.66,NNE,22,4.0,12.0,70,0.00,,,0.00,Rainwise IP-100,2013-06-04 17:31:00,
2013-06-04 13:36:00,60.7,51.0,29.65,NNE,22,9.0,12.0,71,0.00,,,0.00,Rainwise IP-100,2013-06-04 17:36:00,
2013-06-04 13:41:00,60.7,52.0,29.65,NNE,22,7.0,10.0,74,0.00,,,0.00,Rainwise IP-100,2013-06-04 17:41:00,
2013-06-04 13:46:00,60.9,51.0,29.65,NNE,22,4.0,11.0,71,0.00,,,0.00,Rainwise IP-100,2013-06-04 17:46:00,
2013-06-04 13:51:00,61.1,51.0,29.66,NNE,22,5.0,7.0,70,0.00,,,0.00,Rainwise IP-100,2013-06-04 17:51:00,
2013-06-04 13:56:00,61.3,52.0,29.66,NNE,22,4.0,9.0,71,0.00,,,0.00,Rainwise IP-100,2013-06-04 17:56:00,
2013-06-04 14:01:00,61.2,50.5,29.65,NNE,22,6.0,12.0,69,0.00,,,0.00,Rainwise IP-100,2013-06-04 18:01:00,
2013-06-04 14:06:00,61.3,50.5,29.65,NNE,22,5.0,10.0,68,0.00,,,0.00,Rainwise IP-100,2013-06-04 18:06:00,
2013-06-04 14:11:00,62.2,50.5,29.66,NNE,22,7.0,9.0,66,0.00,,,0.00,Rainwise IP-100,2013-06-04 18:11:00,
2013-06-04 14:16:00,62.2,51.0,29.66,NNE,22,4.0,9.0,67,0.00,,,0.00,Rainwise IP-100,2013-06-04 18:16:00,
2013-06-04 14:21:00,61.9,50.5,29.66,NE,45,6.0,8.0,66,0.00,,,0.00,Rainwise IP-100,2013-06-04 18:21:00,
2013-06-04 14:26:00,62.7,51.0,29.66,NE,45,2.0,8.0,67,0.00,,,0.00,Rainwise IP-100,2013-06-04 18:26:00,
2013-06-04 14:31:00,62.7,50.0,29.67,NE,45,8.0,12.0,63,0.00,,,0.00,Rainwise IP-100,2013-06-04 18:31:00,
2013-06-04 14:36:00,62.8,50.0,29.67,NE,45,7.0,10.0,62,0.00,,,0.00,Rainwise IP-100,2013-06-04 18:36:00,
2013-06-04 14:41:00,62.7,50.0,29.67,NE,45,6.0,11.0,64,0.00,,,0.00,Rainwise IP-100,2013-06-04 18:41:00,
2013-06-04 14:46:00,62.9,50.0,29.67,NE,45,5.0,10.0,62,0.00,,,0.00,Rainwise IP-100,2013-06-04 18:46:00,
2013-06-04 14:51:00,62.6,53.0,29.68,NE,45,4.0,9.0,70,0.00,,,0.00,Rainwise IP-100,2013-06-04 18:51:00,
2013-06-04 14:56:00,62.3,52.0,29.68,NE,45,4.0,8.0,68,0.00,,,0.00,Rainwise IP-100,2013-06-04 18:56:00,
2013-06-04 15:01:00,63.0,51.0,29.68,NE,45,7.0,8.0,66,0.00,,,0.00,Rainwise IP-100,2013-06-04 19:01:00,
2013-06-04 15:06:00,63.2,50.5,29.68,NE,45,7.0,11.0,63,0.00,,,0.00,Rainwise IP-100,2013-06-04 19:06:00,
2013-06-04 15:11:00,62.9,50.0,29.68,NE,45,7.0,10.0,62,0.00,,,0.00,Rainwise IP-100,2013-06-04 19:11:00,
2013-06-04 15:16:00,62.2,52.0,29.68,NE,45,2.0,7.0,69,0.00,,,0.00,Rainwise IP-100,2013-06-04 19:16:00,
2013-06-04 15:21:00,62.8,50.5,29.68,NE,45,6.0,10.0,63,0.00,,,0.00,Rainwise IP-100,2013-06-04 19:21:00,
2013-06-04 15:26:00,63.6,50.5,29.68,NE,45,4.0,9.0,62,0.00,,,0.00,Rainwise IP-100,2013-06-04 19:26:00,
2013-06-04 15:31:00,63.5,47.5,29.68,NE,45,4.0,9.0,56,0.00,,,0.00,Rainwise IP-100,2013-06-04 19:31:00,
2013-06-04 15:36:00,64.3,49.0,29.69,NE,45,3.0,7.0,57,0.00,,,0.00,Rainwise IP-100,2013-06-04 19:36:00,
2013-06-04 15:41:00,64.4,47.5,29.69,NE,45,9.0,11.0,54,0.00,,,0.00,Rainwise IP-100,2013-06-04 19:41:00,
2013-06-04 15:46:00,64.1,46.0,29.69,NE,45,9.0,11.0,52,0.00,,,0.00,Rainwise IP-100,2013-06-04 19:46:00,
2013-06-04 15:51:00,64.1,47.0,29.69,NNE,22,4.0,10.0,54,0.00,,,0.00,Rainwise IP-100,2013-06-04 19:51:00,
2013-06-04 15:56:00,64.3,48.0,29.70,NNE,22,4.0,8.0,55,0.00,,,0.00,Rainwise IP-100,2013-06-04 19:56:00,
2013-06-04 16:01:00,64.4,47.5,29.70,NNE,22,7.0,8.0,54,0.00,,,0.00,Rainwise IP-100,2013-06-04 20:01:00,
2013-06-04 16:06:00,63.9,46.0,29.70,NNE,22,4.0,12.0,52,0.00,,,0.00,Rainwise IP-100,2013-06-04 20:06:00,
2013-06-04 16:11:00,64.3,47.0,29.70,NNE,22,6.0,8.0,53,0.00,,,0.00,Rainwise IP-100,2013-06-04 20:11:00,
2013-06-04 16:16:00,64.4,47.0,29.70,NNE,22,2.0,11.0,52,0.00,,,0.00,Rainwise IP-100,2013-06-04 20:16:00,
2013-06-04 16:21:00,64.4,47.5,29.70,NNE,22,3.0,8.0,54,0.00,,,0.00,Rainwise IP-100,2013-06-04 20:21:00,
2013-06-04 16:26:00,64.8,45.0,29.70,NNE,22,2.0,9.0,48,0.00,,,0.00,Rainwise IP-100,2013-06-04 20:26:00,
2013-06-04 16:31:00,64.6,47.5,29.70,ENE,67,1.0,11.0,54,0.00,,,0.00,Rainwise IP-100,2013-06-04 20:31:00,
2013-06-04 16:35:00,64.6,45.0,29.70,NE,45,2.0,12.0,49,0.00,,,0.00,Rainwise IP-100,2013-06-04 20:35:00,
2013-06-04 16:40:00,64.7,46.0,29.69,NNE,22,3.0,9.0,51,0.00,,,0.00,Rainwise IP-100,2013-06-04 20:40:00,
2013-06-04 16:45:00,64.4,47.0,29.70,NNE,22,2.0,10.0,52,0.00,,,0.00,Rainwise IP-100,2013-06-04 20:45:00,
2013-06-04 16:50:00,64.2,46.0,29.70,NNE,22,2.0,9.0,51,0.00,,,0.00,Rainwise IP-100,2013-06-04 20:50:00,
2013-06-04 16:55:00,64.3,45.0,29.70,NE,45,5.0,8.0,49,0.00,,,0.00,Rainwise IP-100,2013-06-04 20:55:00,
2013-06-04 17:00:00,64.4,47.0,29.70,NNE,22,1.0,9.0,52,0.00,,,0.00,Rainwise IP-100,2013-06-04 21:00:00,
2013-06-04 17:05:00,64.9,46.0,29.70,NNE,22,7.0,9.0,50,0.00,,,0.00,Rainwise IP-100,2013-06-04 21:05:00,
2013-06-04 17:10:00,64.6,47.0,29.70,NNE,22,4.0,11.0,52,0.00,,,0.00,Rainwise IP-100,2013-06-04 21:10:00,
2013-06-04 17:15:00,64.5,47.0,29.70,NNE,22,2.0,9.0,53,0.00,,,0.00,Rainwise IP-100,2013-06-04 21:15:00,
2013-06-04 17:20:00,64.4,46.0,29.70,ENE,67,6.0,8.0,51,0.00,,,0.00,Rainwise IP-100,2013-06-04 21:20:00,
2013-06-04 17:25:00,64.3,48.0,29.70,NNE,22,3.0,8.0,56,0.00,,,0.00,Rainwise IP-100,2013-06-04 21:25:00,
2013-06-04 17:30:00,64.3,48.0,29.70,NNE,22,6.0,7.0,55,0.00,,,0.00,Rainwise IP-100,2013-06-04 21:30:00,
2013-06-04 17:35:00,63.9,46.0,29.70,NNE,22,4.0,9.0,52,0.00,,,0.00,Rainwise IP-100,2013-06-04 21:35:00,
2013-06-04 17:40:00,63.9,47.0,29.70,NNE,22,3.0,8.0,53,0.00,,,0.00,Rainwise IP-100,2013-06-04 21:40:00,
2013-06-04 17:45:00,64.0,47.0,29.70,NNE,22,6.0,7.0,54,0.00,,,0.00,Rainwise IP-100,2013-06-04 21:45:00,
2013-06-04 17:50:00,63.9,48.0,29.70,NNE,22,4.0,7.0,57,0.00,,,0.00,Rainwise IP-100,2013-06-04 21:50:00,
2013-06-04 17:55:00,63.9,48.0,29.70,NNE,22,1.0,8.0,56,0.00,,,0.00,Rainwise IP-100,2013-06-04 21:55:00,
2013-06-04 18:00:00,64.6,47.0,29.70,NNE,22,3.0,6.0,52,0.00,,,0.00,Rainwise IP-100,2013-06-04 22:00:00,
2013-06-04 18:05:00,64.4,46.0,29.71,NE,45,3.0,9.0,50,0.00,,,0.00,Rainwise IP-100,2013-06-04 22:05:00,
2013-06-04 18:10:00,64.2,47.0,29.72,NE,45,4.0,6.0,54,0.00,,,0.00,Rainwise IP-100,2013-06-04 22:10:00,
2013-06-04 18:15:00,64.1,48.0,29.72,NNE,22,4.0,7.0,56,0.00,,,0.00,Rainwise IP-100,2013-06-04 22:15:00,
2013-06-04 18:20:00,63.7,48.0,29.72,NNE,22,4.0,8.0,57,0.00,,,0.00,Rainwise IP-100,2013-06-04 22:20:00,
2013-06-04 18:25:00,63.6,48.0,29.72,NNE,22,5.0,10.0,57,0.00,,,0.00,Rainwise IP-100,2013-06-04 22:25:00,
2013-06-04 18:30:00,63.6,49.0,29.72,ENE,67,2.0,9.0,59,0.00,,,0.00,Rainwise IP-100,2013-06-04 22:30:00,
2013-06-04 18:35:00,63.4,51.0,29.72,ENE,67,2.0,6.0,65,0.00,,,0.00,Rainwise IP-100,2013-06-04 22:35:00,
2013-06-04 18:40:00,63.7,48.0,29.72,NNE,22,5.0,7.0,57,0.00,,,0.00,Rainwise IP-100,2013-06-04 22:40:00,
2013-06-04 18:45:00,63.4,50.0,29.73,NNE,22,4.0,12.0,61,0.00,,,0.00,Rainwise IP-100,2013-06-04 22:45:00,
2013-06-04 18:50:00,63.4,50.5,29.73,NE,45,4.0,9.0,62,0.00,,,0.00,Rainwise IP-100,2013-06-04 22:50:00,
2013-06-04 18:55:00,63.8,47.0,29.74,ENE,67,4.0,5.0,54,0.00,,,0.00,Rainwise IP-100,2013-06-04 22:55:00,
2013-06-04 19:00:00,63.9,47.5,29.74,NNE,22,1.0,8.0,55,0.00,,,0.00,Rainwise IP-100,2013-06-04 23:00:00,
2013-06-04 19:05:00,63.8,48.0,29.74,ENE,67,1.0,7.0,57,0.00,,,0.00,Rainwise IP-100,2013-06-04 23:05:00,
2013-06-04 19:10:00,63.7,48.0,29.74,NNE,22,4.0,6.0,58,0.00,,,0.00,Rainwise IP-100,2013-06-04 23:10:00,
2013-06-04 19:15:00,63.2,47.0,29.74,ENE,67,3.0,6.0,56,0.00,,,0.00,Rainwise IP-100,2013-06-04 23:15:00,
2013-06-04 19:20:00,62.9,49.0,29.74,ENE,67,1.0,4.0,60,0.00,,,0.00,Rainwise IP-100,2013-06-04 23:20:00,
2013-06-04 19:25:00,62.5,48.0,29.74,NE,45,1.0,4.0,60,0.00,,,0.00,Rainwise IP-100,2013-06-04 23:25:00,
2013-06-04 19:30:00,61.9,50.5,29.74,NE,45,2.0,3.0,66,0.00,,,0.00,Rainwise IP-100,2013-06-04 23:30:00,
2013-06-04 19:35:00,61.3,51.0,29.74,NE,45,0.0,2.0,69,0.00,,,0.00,Rainwise IP-100,2013-06-04 23:35:00,
2013-06-04 19:40:00,61.1,51.0,29.73,NNE,22,2.0,5.0,70,0.00,,,0.00,Rainwise IP-100,2013-06-04 23:40:00,
2013-06-04 19:45:00,60.9,50.5,29.73,NNE,22,2.0,4.0,68,0.00,,,0.00,Rainwise IP-100,2013-06-04 23:45:00,
2013-06-04 19:50:00,60.8,50.5,29.73,NNE,22,2.0,2.0,69,0.00,,,0.00,Rainwise IP-100,2013-06-04 23:50:00,
2013-06-04 19:55:00,60.8,50.0,29.73,NNE,22,0.0,6.0,67,0.00,,,0.00,Rainwise IP-100,2013-06-04 23:55:00,
2013-06-04 20:00:00,60.6,50.0,29.74,NNE,22,0.0,6.0,67,0.00,,,0.00,Rainwise IP-100,2013-06-05 00:00:00,
2013-06-04 20:05:00,60.2,50.0,29.74,ENE,67,2.0,2.0,70,0.00,,,0.00,Rainwise IP-100,2013-06-05 00:05:00,
2013-06-04 20:10:00,59.6,50.5,29.74,ENE,67,0.0,2.0,72,0.00,,,0.00,Rainwise IP-100,2013-06-05 00:10:00,
2013-06-04 20:15:00,59.2,51.0,29.74,ENE,67,0.0,2.0,75,0.00,,,0.00,Rainwise IP-100,2013-06-05 00:15:00,
2013-06-04 20:20:00,58.9,50.5,29.74,NNE,22,2.0,2.0,74,0.00,,,0.00,Rainwise IP-100,2013-06-05 00:20:00,
2013-06-04 20:25:00,58.7,51.0,29.74,ENE,67,2.0,7.0,76,0.00,,,0.00,Rainwise IP-100,2013-06-05 00:25:00,
2013-06-04 20:30:00,58.5,53.0,29.74,ENE,67,0.0,5.0,79,0.00,,,0.00,Rainwise IP-100,2013-06-05 00:30:00,
2013-06-04 20:35:00,58.3,50.5,29.74,ENE,67,0.0,3.0,75,0.00,,,0.00,Rainwise IP-100,2013-06-05 00:35:00,
2013-06-04 20:40:00,58.1,50.5,29.74,NNE,22,0.0,2.0,76,0.00,,,0.00,Rainwise IP-100,2013-06-05 00:40:00,
2013-06-04 20:45:00,57.8,51.0,29.74,NNE,22,2.0,2.0,77,0.00,,,0.00,Rainwise IP-100,2013-06-05 00:45:00,
2013-06-04 20:50:00,57.7,50.5,29.75,NNE,22,1.0,4.0,78,0.00,,,0.00,Rainwise IP-100,2013-06-05 00:50:00,
2013-06-04 20:55:00,57.5,50.5,29.75,ENE,67,1.0,2.0,78,0.00,,,0.00,Rainwise IP-100,2013-06-05 00:55:00,
2013-06-04 21:00:00,57.4,50.5,29.76,NNE,22,1.0,3.0,78,0.00,,,0.00,Rainwise IP-100,2013-06-05 01:00:00,
2013-06-04 21:05:00,57.3,51.0,29.76,NNE,22,1.0,4.0,80,0.00,,,0.00,Rainwise IP-100,2013-06-05 01:05:00,
2013-06-04 21:10:00,57.2,53.0,29.77,NNE,22,1.0,3.0,85,0.00,,,0.00,Rainwise IP-100,2013-06-05 01:10:00,
2013-06-04 21:15:00,57.3,52.0,29.78,NNE,22,2.0,4.0,82,0.00,,,0.00,Rainwise IP-100,2013-06-05 01:15:00,
2013-06-04 21:20:00,57.3,53.5,29.78,NNE,22,0.0,4.0,86,0.00,,,0.00,Rainwise IP-100,2013-06-05 01:20:00,
2013-06-04 21:25:00,56.7,53.0,29.78,ENE,67,0.0,2.0,87,0.00,,,0.00,Rainwise IP-100,2013-06-05 01:25:00,
2013-06-04 21:30:00,56.4,53.0,29.78,NE,45,2.0,4.0,87,0.00,,,0.00,Rainwise IP-100,2013-06-05 01:30:00,
2013-06-04 21:35:00,56.6,53.0,29.78,NE,45,1.0,4.0,86,0.00,,,0.00,Rainwise IP-100,2013-06-05 01:35:00,
2013-06-04 21:40:00,56.9,52.0,29.78,NE,45,2.0,3.0,83,0.00,,,0.00,Rainwise IP-100,2013-06-05 01:40:00,
2013-06-04 21:45:00,56.9,52.0,29.78,NNE,22,2.0,3.0,84,0.00,,,0.00,Rainwise IP-100,2013-06-05 01:45:00,
2013-06-04 21:50:00,57.3,53.5,29.79,NNE,22,1.0,4.0,86,0.00,,,0.00,Rainwise IP-100,2013-06-05 01:50:00,
2013-06-04 21:55:00,57.1,53.5,29.79,NNE,22,1.0,3.0,87,0.00,,,0.00,Rainwise IP-100,2013-06-05 01:55:00,
2013-06-04 22:00:00,56.8,53.0,29.79,NNE,22,2.0,3.0,85,0.00,,,0.00,Rainwise IP-100,2013-06-05 02:00:00,
2013-06-04 22:05:00,56.9,53.0,29.79,NNE,22,2.0,3.0,85,0.00,,,0.00,Rainwise IP-100,2013-06-05 02:05:00,
2013-06-04 22:10:00,56.9,52.0,29.79,NNE,22,2.0,3.0,83,0.00,,,0.00,Rainwise IP-100,2013-06-05 02:10:00,
2013-06-04 22:15:00,56.6,53.0,29.79,NNE,22,2.0,3.0,86,0.00,,,0.00,Rainwise IP-100,2013-06-05 02:15:00,
2013-06-04 22:20:00,56.4,52.0,29.79,NNE,22,0.0,2.0,85,0.00,,,0.00,Rainwise IP-100,2013-06-05 02:20:00,
2013-06-04 22:25:00,56.3,53.0,29.80,NNE,22,0.0,2.0,86,0.00,,,0.00,Rainwise IP-100,2013-06-05 02:25:00,
2013-06-04 22:30:00,55.7,52.0,29.79,NNE,22,0.0,0.0,86,0.00,,,0.00,Rainwise IP-100,2013-06-05 02:30:00,
2013-06-04 22:35:00,55.1,51.0,29.80,NNE,22,0.0,2.0,86,0.00,,,0.00,Rainwise IP-100,2013-06-05 02:35:00,
2013-06-04 22:40:00,54.7,50.5,29.79,NNE,22,0.0,1.0,87,0.00,,,0.00,Rainwise IP-100,2013-06-05 02:40:00,
2013-06-04 22:45:00,54.2,50.5,29.79,NNE,22,0.0,0.0,87,0.00,,,0.00,Rainwise IP-100,2013-06-05 02:45:00,
2013-06-04 22:50:00,53.9,50.5,29.78,ENE,67,1.0,1.0,88,0.00,,,0.00,Rainwise IP-100,2013-06-05 02:50:00,
2013-06-04 22:55:00,53.7,50.0,29.78,ENE,67,1.0,2.0,88,0.00,,,0.00,Rainwise IP-100,2013-06-05 02:55:00,
2013-06-04 23:00:00,53.3,50.0,29.78,ENE,67,0.0,1.0,88,0.00,,,0.00,Rainwise IP-100,2013-06-05 03:00:00,
2013-06-04 23:05:00,52.9,50.0,29.79,ENE,67,0.0,0.0,89,0.00,,,0.00,Rainwise IP-100,2013-06-05 03:05:00,
2013-06-04 23:10:00,52.6,50.0,29.79,ENE,67,0.0,2.0,89,0.00,,,0.00,Rainwise IP-100,2013-06-05 03:10:00,
2013-06-04 23:15:00,52.4,48.0,29.78,ENE,67,0.0,2.0,88,0.00,,,0.00,Rainwise IP-100,2013-06-05 03:15:00,
2013-06-04 23:20:00,52.2,48.0,29.79,ENE,67,0.0,2.0,86,0.00,,,0.00,Rainwise IP-100,2013-06-05 03:20:00,
2013-06-04 23:25:00,51.9,47.5,29.78,ENE,67,0.0,2.0,85,0.00,,,0.00,Rainwise IP-100,2013-06-05 03:25:00,
2013-06-04 23:30:00,51.9,47.0,29.79,ENE,67,1.0,2.0,82,0.00,,,0.00,Rainwise IP-100,2013-06-05 03:30:00,
2013-06-04 23:35:00,52.2,49.0,29.78,ENE,67,1.0,2.0,89,0.00,,,0.00,Rainwise IP-100,2013-06-05 03:35:00,
2013-06-04 23:40:00,52.1,48.0,29.78,ENE,67,0.0,2.0,87,0.00,,,0.00,Rainwise IP-100,2013-06-05 03:40:00,
2013-06-04 23:45:00,52.3,48.0,29.78,NNE,22,0.0,4.0,86,0.00,,,0.00,Rainwise IP-100,2013-06-05 03:45:00,
2013-06-04 23:50:00,52.3,48.0,29.78,NNE,22,0.0,2.0,86,0.00,,,0.00,Rainwise IP-100,2013-06-05 03:50:00,
2013-06-04 23:55:00,52.5,49.0,29.79,NNE,22,2.0,2.0,87,0.00,,,0.00,Rainwise IP-100,2013-06-05 03:55:00,